Location: Unspecified
(0.0000°N, 0.0000°E)
Time: 19:11:34
(UTC+02:00)

Cosmos 1125 Rocket - Visible Passes

Search period start: 30 July 2014 00:00
Search period end: 09 August 2014 00:00
Orbit: 758 x 782 km, 74.0° (Epoch: 29 July)

Date Brightness Start Highest point End Pass type
(mag) Time Alt. Az. Time Alt. Az. Time Alt. Az.
03 Aug 5.6 22:29:29 10° N 22:30:52 19° N 22:30:52 19° N visible
04 Aug 4.9 21:53:31 10° N 21:55:50 24° NNE 21:55:50 24° NNE visible
05 Aug 5.0 21:18:17 10° NNE 21:20:54 19° ENE 21:20:54 19° ENE visible
05 Aug 6.1 22:59:48 10° NW 23:01:16 16° WNW 23:01:16 16° WNW visible
06 Aug 4.6 22:22:32 10° NNW 22:26:27 40° WNW 22:26:27 40° WNW visible
07 Aug 3.3 21:45:57 10° N 21:51:09 86° ENE 21:51:44 71° SSE visible
08 Aug 3.9 21:09:57 10° N 21:14:49 41° ENE 21:17:07 27° SE visible
08 Aug 6.4 22:55:51 10° W 22:56:39 10° WSW 22:57:26 10° WSW visible
